Simultaneous Nadir Overpasses (SNOs) Predictions

Prediction of SNOs between NOAA-20 and PACE Satellite Orbit:

Table of predicted SNOs for the next 14.0 days since TLE Epoch: 12/28/2024
Index Date (NOAA-20) Time (NOAA-20) Lat,Lon (NOAA-20) SZA (NOAA-20 ) Date (PACE) Time (PACE) Lat,Lon (PACE) SZA (PACE ) Distance(km) Time Diff (sec)
1 12/29/2024 00:00:58 -79.75, -36.96 75.13 12/29/2024 00:01:02 -79.75, -36.91 75.13 0.97 4
2 12/31/2024 03:37:33 80.98, 72.35 107.56 12/31/2024 03:38:46 81.26, 73.08 107.61 33.30 73
3 12/31/2024 04:27:26 -79.72,-103.34 75.29 12/31/2024 04:27:06 -79.72,-103.21 75.30 2.72 20
4 01/02/2025 08:03:14 79.86, 21.44 104.80 01/02/2025 08:04:04 79.86, 21.53 104.77 1.67 50
5 01/02/2025 08:53:51 -79.60,-168.94 75.65 01/02/2025 08:53:07 -79.61,-168.96 75.63 0.74 44
6 01/04/2025 12:29:39 79.75, -44.18 104.42 01/04/2025 12:30:04 79.75, -44.19 104.41 0.35 25
7 01/04/2025 13:20:16 -79.49, 125.40 76.04 01/04/2025 13:19:07 -79.50, 125.27 75.99 2.73 69
8 01/06/2025 16:56:06 79.71,-110.44 104.12 01/06/2025 16:56:05 79.72,-110.44 104.12 0.38 1
9 01/08/2025 20:31:55 -79.88, 14.03 75.84 01/08/2025 20:33:01 -79.88, 14.14 75.88 2.12 66
10 01/08/2025 21:22:32 79.65,-176.46 103.74 01/08/2025 21:22:04 79.64,-176.42 103.75 0.76 28
11 01/11/2025 00:58:19 -79.76, -51.44 76.36 01/11/2025 00:58:58 -79.77, -51.55 76.36 2.46 39



Historial Predications of SNOs between NOAA-20 and PACE
